When you browse on this site, cookies collect data to enhance your experience and personalize the content and advertising you see.
Visit our Privacy Policy to learn more. By continuing to use the site, you agree to this use of cookies and data.
  • în România
  • Lista ţărilor
  • Pe 7 zile
  • Temperatura apei
  • Meteo pe hartă
  • Widget-uri
  • user-avatar
    Intrare

    Meteo pe oră la La Massana

    Astăzi, 26 Mai, Marţi

    Timp Temperatura Precipitaţii Vânt Presiune Umiditate
    00:00 +7°C° 0 mm 1 m/s 616 mmHg 87%
    01:00 +7°C° 0 mm 1 m/s 616 mmHg 85%
    02:00 +7°C° 0 mm 1 m/s 616 mmHg 82%
    03:00 +6°C° 0 mm 1 m/s 615 mmHg 79%
    04:00 +7°C° 0 mm 1 m/s 616 mmHg 76%
    05:00 +8°C° 0 mm 1 m/s 616 mmHg 73%
    06:00 +10°C° 0 mm 1 m/s 617 mmHg 65%
    07:00 +12°C° 0 mm 1 m/s 618 mmHg 59%
    08:00 +14°C° 0 mm 1 m/s 619 mmHg 53%
    09:00 +16°C° 0 mm 1 m/s 620 mmHg 47%
    10:00 +18°C° 0 mm 1 m/s 620 mmHg 45%
    11:00 +18°C° 0 mm 2 m/s 621 mmHg 43%
    12:00 +19°C° 0 mm 2 m/s 621 mmHg 42%
    13:00 +19°C° 0 mm 2 m/s 620 mmHg 46%
    14:00 +18°C° 0 mm 2 m/s 620 mmHg 50%
    15:00 +18°C° 0 mm 2 m/s 620 mmHg 54%
    16:00 +16°C° 0.1 mm 2 m/s 619 mmHg 64%
    17:00 +15°C° 0.1 mm 2 m/s 618 mmHg 74%
    18:00 +13°C° 0.1 mm 1 m/s 617 mmHg 84%
    19:00 +12°C° 0.1 mm 1 m/s 617 mmHg 86%
    20:00 +11°C° 0.1 mm 1 m/s 617 mmHg 89%
    21:00 +9°C° 0.1 mm 1 m/s 617 mmHg 91%
    22:00 +8°C° 0 mm 1 m/s 616 mmHg 86%
    23:00 +8°C° 0 mm 1 m/s 616 mmHg 81%

    Mâine, 27 Mai, Miercuri

    Timp Temperatura Precipitaţii Vânt Presiune Umiditate
    00:00 +6°C° 0 mm 2 m/s 615 mmHg 75%
    01:00 +6°C° 0 mm 2 m/s 615 mmHg 71%
    02:00 +5°C° 0 mm 2 m/s 615 mmHg 66%
    03:00 +5°C° 0 mm 2 m/s 615 mmHg 62%
    04:00 +7°C° 0 mm 1 m/s 615 mmHg 62%
    05:00 +8°C° 0 mm 1 m/s 616 mmHg 62%
    06:00 +9°C° 0 mm 1 m/s 617 mmHg 62%
    07:00 +12°C° 0 mm 1 m/s 618 mmHg 55%
    08:00 +14°C° 0 mm 1 m/s 619 mmHg 48%
    09:00 +18°C° 0 mm 1 m/s 620 mmHg 40%
    10:00 +18°C° 0 mm 1 m/s 620 mmHg 40%
    11:00 +18°C° 0 mm 2 m/s 621 mmHg 39%
    12:00 +19°C° 0 mm 2 m/s 621 mmHg 39%
    13:00 +18°C° 0.1 mm 2 m/s 620 mmHg 46%
    14:00 +17°C° 0.1 mm 2 m/s 620 mmHg 53%
    15:00 +16°C° 0.1 mm 2 m/s 619 mmHg 60%
    16:00 +15°C° 0.2 mm 2 m/s 619 mmHg 66%
    17:00 +14°C° 0.2 mm 1 m/s 619 mmHg 73%
    18:00 +13°C° 0.2 mm 1 m/s 618 mmHg 79%
    19:00 +11°C° 0 mm 1 m/s 618 mmHg 83%
    20:00 +10°C° 0 mm 1 m/s 618 mmHg 87%
    21:00 +9°C° 0 mm 1 m/s 617 mmHg 91%
    22:00 +8°C° 0 mm 1 m/s 617 mmHg 92%
    23:00 +8°C° 0 mm 1 m/s 617 mmHg 92%

    Poimâine, 28 Mai, Joi

    Timp Temperatura Precipitaţii Vânt Presiune Umiditate
    00:00 +8°C° 0 mm 1 m/s 616 mmHg 92%
    01:00 +7°C° 0 mm 1 m/s 616 mmHg 92%
    02:00 +7°C° 0 mm 1 m/s 616 mmHg 92%
    03:00 +7°C° 0 mm 1 m/s 616 mmHg 92%
    04:00 +8°C° 0 mm 1 m/s 616 mmHg 90%
    05:00 +9°C° 0 mm 1 m/s 616 mmHg 87%
    06:00 +10°C° 0 mm 1 m/s 617 mmHg 85%
    07:00 +12°C° 0 mm 1 m/s 617 mmHg 74%
    08:00 +14°C° 0 mm 1 m/s 618 mmHg 63%
    09:00 +16°C° 0 mm 1 m/s 619 mmHg 53%
    10:00 +17°C° 0 mm 2 m/s 619 mmHg 52%
    11:00 +17°C° 0 mm 2 m/s 619 mmHg 51%
    12:00 +18°C° 0 mm 2 m/s 619 mmHg 50%
    13:00 +17°C° 0.4 mm 2 m/s 618 mmHg 57%
    14:00 +16°C° 0.4 mm 1 m/s 617 mmHg 63%
    15:00 +15°C° 0.4 mm 1 m/s 617 mmHg 70%
    16:00 +14°C° 0.4 mm 1 m/s 616 mmHg 73%
    17:00 +14°C° 0.4 mm 1 m/s 616 mmHg 77%
    18:00 +12°C° 0.4 mm 0 m/s 615 mmHg 80%
    19:00 +12°C° 0 mm 1 m/s 615 mmHg 84%
    20:00 +10°C° 0 mm 1 m/s 614 mmHg 89%
    21:00 +9°C° 0 mm 1 m/s 614 mmHg 93%
    22:00 +9°C° 0 mm 1 m/s 614 mmHg 89%
    23:00 +8°C° 0 mm 1 m/s 613 mmHg 85%

    29 Mai, Vineri

    Timp Temperatura Precipitaţii Vânt Presiune Umiditate
    00:00 +7°C° 0 mm 1 m/s 613 mmHg 81%
    01:00 +7°C° 0 mm 1 m/s 612 mmHg 76%
    02:00 +7°C° 0 mm 1 m/s 612 mmHg 71%
    03:00 +6°C° 0 mm 1 m/s 612 mmHg 66%
    04:00 +8°C° 0 mm 1 m/s 612 mmHg 65%
    05:00 +9°C° 0 mm 1 m/s 613 mmHg 64%
    06:00 +10°C° 0 mm 1 m/s 613 mmHg 62%
    07:00 +12°C° 0 mm 1 m/s 614 mmHg 53%
    08:00 +15°C° 0 mm 1 m/s 615 mmHg 44%
    09:00 +19°C° 0 mm 1 m/s 616 mmHg 34%
    10:00 +19°C° 0 mm 1 m/s 616 mmHg 33%
    11:00 +20°C° 0 mm 1 m/s 616 mmHg 32%
    12:00 +20°C° 0 mm 2 m/s 616 mmHg 31%
    13:00 +20°C° 0 mm 2 m/s 616 mmHg 35%
    14:00 +19°C° 0 mm 2 m/s 615 mmHg 38%
    15:00 +19°C° 0 mm 2 m/s 615 mmHg 41%
    16:00 +19°C° 0.2 mm 1 m/s 614 mmHg 51%
    17:00 +16°C° 0.2 mm 1 m/s 613 mmHg 61%
    18:00 +15°C° 0.2 mm 1 m/s 613 mmHg 72%
    19:00 +13°C° 0 mm 1 m/s 612 mmHg 77%
    20:00 +12°C° 0 mm 1 m/s 612 mmHg 82%
    21:00 +10°C° 0 mm 1 m/s 611 mmHg 87%
    22:00 +9°C° 0 mm 1 m/s 611 mmHg 87%
    23:00 +9°C° 0 mm 1 m/s 610 mmHg 87%

    30 Mai, Sâmbătă

    Timp Temperatura Precipitaţii Vânt Presiune Umiditate
    00:00 +9°C° 0 mm 1 m/s 610 mmHg 86%
    01:00 +8°C° 0 mm 1 m/s 610 mmHg 83%
    02:00 +8°C° 0 mm 1 m/s 610 mmHg 80%
    03:00 +8°C° 0 mm 1 m/s 609 mmHg 78%
    04:00 +9°C° 0 mm 1 m/s 610 mmHg 75%
    05:00 +10°C° 0 mm 1 m/s 611 mmHg 73%
    06:00 +10°C° 0 mm 1 m/s 611 mmHg 71%
    07:00 +13°C° 0 mm 1 m/s 612 mmHg 61%
    08:00 +15°C° 0 mm 1 m/s 613 mmHg 51%
    09:00 +18°C° 0 mm 1 m/s 614 mmHg 41%
    10:00 +19°C° 0 mm 1 m/s 615 mmHg 40%
    11:00 +19°C° 0 mm 2 m/s 615 mmHg 38%
    12:00 +20°C° 0 mm 2 m/s 615 mmHg 37%
    13:00 +19°C° 0.1 mm 2 m/s 615 mmHg 44%
    14:00 +18°C° 0.1 mm 2 m/s 614 mmHg 50%
    15:00 +18°C° 0.1 mm 2 m/s 614 mmHg 57%
    16:00 +17°C° 0.2 mm 2 m/s 613 mmHg 64%
    17:00 +15°C° 0.2 mm 1 m/s 613 mmHg 71%
    18:00 +14°C° 0.2 mm 1 m/s 612 mmHg 78%
    19:00 +13°C° 0 mm 1 m/s 612 mmHg 82%
    20:00 +11°C° 0 mm 1 m/s 612 mmHg 87%
    21:00 +10°C° 0 mm 1 m/s 611 mmHg 92%
    22:00 +10°C° 0 mm 1 m/s 611 mmHg 91%
    23:00 +9°C° 0 mm 1 m/s 611 mmHg 91%

    31 Mai, Duminică

    Timp Temperatura Precipitaţii Vânt Presiune Umiditate
    00:00 +9°C° 0 mm 1 m/s 611 mmHg 91%
    01:00 +9°C° 0 mm 1 m/s 611 mmHg 90%
    02:00 +9°C° 0 mm 1 m/s 611 mmHg 89%
    03:00 +9°C° 0 mm 1 m/s 610 mmHg 88%
    04:00 +10°C° 0 mm 1 m/s 611 mmHg 85%
    05:00 +11°C° 0 mm 1 m/s 611 mmHg 82%
    06:00 +12°C° 0 mm 1 m/s 612 mmHg 79%
    07:00 +14°C° 0 mm 1 m/s 613 mmHg 69%
    08:00 +16°C° 0 mm 1 m/s 613 mmHg 58%
    09:00 +19°C° 0 mm 1 m/s 614 mmHg 48%
    10:00 +20°C° 0 mm 1 m/s 614 mmHg 45%
    11:00 +20°C° 0 mm 2 m/s 615 mmHg 42%
    12:00 +21°C° 0 mm 2 m/s 615 mmHg 39%
    13:00 +20°C° 0.2 mm 2 m/s 614 mmHg 45%
    14:00 +19°C° 0.2 mm 2 m/s 614 mmHg 50%
    15:00 +18°C° 0.2 mm 2 m/s 613 mmHg 55%
    16:00 +18°C° 0.6 mm 1 m/s 612 mmHg 63%
    17:00 +16°C° 0.6 mm 1 m/s 612 mmHg 70%
    18:00 +15°C° 0.6 mm 1 m/s 611 mmHg 78%
    19:00 +14°C° 0.2 mm 1 m/s 611 mmHg 80%
    20:00 +13°C° 0.2 mm 1 m/s 611 mmHg 82%
    21:00 +12°C° 0.2 mm 1 m/s 610 mmHg 85%
    22:00 +12°C° 0.2 mm 1 m/s 610 mmHg 85%
    23:00 +11°C° 0.2 mm 1 m/s 610 mmHg 84%
    Arată mai mult